�N����,����,�~����,�C��,���x,�C��,����,���ϕ���,�ő�u�ԕ���,�ő厞����,���˗�,�I�_���x,�n�����x,�ő啗���N��,DTYPE
"20/01/19","00:10",0.0,1.1,89.1,1009.0,297.6,1.3,2.1,317.1,0.00,-0.5,6.8,"00:06:56",1
"20/01/19","00:20",0.0,1.2,89.7,1008.8,327.6,1.7,3.3,317.5,0.00,-0.3,6.5,"00:18:32",1
"20/01/19","00:30",0.0,1.1,90.1,1009.0,316.8,2.0,2.7,325.0,0.00,-0.3,6.6,"00:22:16",1
"20/01/19","00:40",0.0,1.0,90.5,1009.0,315.2,1.3,2.1,306.7,0.00,-0.3,6.7,"00:37:36",1
"20/01/19","00:50",0.0,0.8,90.9,1009.0,304.7,1.6,2.0,319.4,0.00,-0.5,6.6,"00:43:04",1
"20/01/19","01:00",0.0,1.3,91.4,1009.3,314.0,2.1,4.4,330.1,0.00,0.1,6.5,"00:59:52",1
"20/01/19","01:10",0.0,2.6,91.0,1009.0,322.8,3.4,5.1,324.9,0.00,1.3,6.6,"01:03:36",1
"20/01/19","01:20",0.0,3.3,90.3,1009.7,320.6,3.2,5.6,325.2,0.00,1.9,6.4,"01:11:20",1
"20/01/19","01:30",0.0,3.4,89.4,1009.7,325.4,2.8,3.9,314.8,0.00,1.9,6.5,"01:21:04",1
"20/01/19","01:40",0.0,3.6,88.2,1010.0,324.7,3.0,4.8,331.8,0.00,1.9,6.3,"01:36:08",1
"20/01/19","01:50",0.0,3.6,86.9,1010.0,328.9,2.8,3.9,331.8,0.00,1.7,6.2,"01:48:08",1
"20/01/19","02:00",0.0,3.6,85.5,1010.2,321.3,2.7,4.1,336.1,0.00,1.4,6.3,"01:50:16",1
"20/01/19","02:10",0.0,3.5,84.4,1010.7,329.3,2.7,3.9,324.7,0.00,1.2,6.3,"02:08:32",1
"20/01/19","02:20",0.0,3.6,83.4,1010.7,325.9,3.4,4.8,332.7,0.00,1.1,6.3,"02:16:40",1
"20/01/19","02:30",0.0,3.7,82.5,1010.9,326.9,3.6,5.2,336.5,0.00,1.0,6.4,"02:21:28",1
"20/01/19","02:40",0.0,4.1,81.7,1010.4,324.9,3.9,5.2,331.6,0.00,1.3,6.2,"02:39:20",1
"20/01/19","02:50",0.0,4.1,80.9,1010.7,323.1,3.0,5.9,313.2,0.00,1.2,6.1,"02:44:40",1
"20/01/19","03:00",0.0,3.5,80.5,1010.4,333.5,1.8,3.1,332.6,0.00,0.5,6.3,"02:51:28",1
"20/01/19","03:10",0.0,2.6,81.2,1010.2,320.2,2.3,4.0,340.7,0.00,-0.3,6.2,"03:01:36",1
"20/01/19","03:20",0.0,2.2,82.3,1010.2,327.3,1.7,2.9,308.9,0.00,-0.5,6.1,"03:12:00",1
"20/01/19","03:30",0.0,1.6,83.1,1010.2,313.7,2.0,2.7,325.5,0.00,-0.9,6.1,"03:24:24",1
"20/01/19","03:40",0.0,1.9,84.4,1010.2,313.9,2.8,4.8,321.8,0.00,-0.4,6.1,"03:37:28",1
"20/01/19","03:50",0.0,1.9,85.4,1009.7,326.8,2.7,3.7,334.9,0.00,-0.2,5.8,"03:44:16",1
"20/01/19","04:00",0.0,1.9,86.2,1010.2,324.1,2.2,4.0,333.5,0.00,-0.1,6.3,"03:53:12",1
"20/01/19","04:10",0.0,1.9,87.0,1009.7,326.8,2.6,3.4,316.2,0.00,0.0,6.1,"04:09:52",1
"20/01/19","04:20",0.0,2.0,87.3,1010.0,295.7,2.0,3.5,327.2,0.00,0.2,6.0,"04:14:24",1
"20/01/19","04:30",0.0,1.7,87.7,1010.0,303.9,0.8,1.2,311.6,0.00,-0.1,5.9,"04:22:08",1
"20/01/19","04:40",0.0,1.4,88.0,1010.0,306.3,1.3,2.4,323.4,0.00,-0.3,6.0,"04:33:28",1
"20/01/19","04:50",0.0,0.8,88.5,1009.7,318.4,2.0,2.9,325.1,0.00,-0.8,5.8,"04:41:28",1
"20/01/19","05:00",0.0,0.7,88.9,1009.5,315.1,1.6,2.4,340.9,0.00,-0.9,5.8,"04:53:52",1
"20/01/19","05:10",0.0,0.4,89.1,1009.7,297.6,1.5,2.0,313.7,0.00,-1.1,5.8,"05:07:44",1
"20/01/19","05:20",0.0,0.5,89.4,1009.5,307.8,1.2,1.8,312.0,0.00,-1.0,5.8,"05:12:48",1
"20/01/19","05:30",0.0,0.3,89.6,1009.5,312.4,1.2,2.2,316.7,0.00,-1.2,5.7,"05:26:08",1
"20/01/19","05:40",0.0,0.0,90.0,1009.7,282.7,0.7,1.3,287.4,0.00,-1.4,5.6,"05:30:56",1
"20/01/19","05:50",0.0,0.3,90.3,1009.7,345.8,0.5,1.8,320.0,0.00,-1.1,5.8,"05:49:20",1
"20/01/19","06:00",0.0,0.1,90.5,1010.0,268.8,0.5,1.1,295.3,0.00,-1.2,5.5,"05:50:40",1
"20/01/19","06:10",0.0,0.6,90.8,1010.2,322.3,1.1,2.1,332.2,0.00,-0.7,5.5,"06:09:20",1
"20/01/19","06:20",0.0,0.7,91.1,1010.0,324.5,1.8,2.4,324.3,0.00,-0.5,5.6,"06:15:52",1
"20/01/19","06:30",0.0,0.4,91.4,1010.0,322.3,1.8,2.5,319.6,0.00,-0.8,5.5,"06:21:36",1
"20/01/19","06:40",0.0,0.0,91.6,1010.2,315.5,1.2,1.8,320.7,0.00,-1.2,5.6,"06:32:08",1
"20/01/19","06:50",0.0,-0.3,91.9,1010.2,291.7,1.0,1.4,333.2,0.00,-1.4,5.2,"06:40:24",1
"20/01/19","07:00",0.0,-0.5,92.2,1010.0,293.2,1.1,1.6,280.7,0.00,-1.6,5.2,"06:50:48",1
"20/01/19","07:10",0.0,-0.2,92.5,1010.2,303.1,1.6,2.4,317.8,0.00,-1.2,5.3,"07:08:18",1
"20/01/19","07:20",0.0,0.1,92.6,1010.2,329.2,2.0,2.8,329.5,0.00,-0.9,5.2,"07:17:52",1
"20/01/19","07:30",0.0,-0.1,92.7,1010.2,309.7,1.2,2.1,331.3,0.00,-1.1,5.2,"07:20:48",1
"20/01/19","07:40",0.0,-0.3,93.0,1010.2,323.8,1.3,2.4,306.9,0.00,-1.3,5.2,"07:39:28",1
"20/01/19","07:50",0.0,-0.6,93.4,1010.2,315.3,1.6,2.7,329.5,0.00,-1.5,5.0,"07:46:58",1
"20/01/19","08:00",0.0,-0.3,93.5,1010.2,71.1,0.5,1.1,294.7,0.00,-1.2,4.9,"07:58:08",1
"20/01/19","08:10",0.0,-0.1,93.8,1010.7,283.7,1.0,1.7,282.8,0.00,-0.9,5.2,"08:02:48",1
"20/01/19","08:20",0.0,0.3,93.9,1010.7,268.0,1.0,1.3,285.6,0.00,-0.5,5.1,"08:10:08",1
"20/01/19","08:30",0.0,1.2,94.0,1011.4,66.0,0.3,1.0,340.6,0.00,0.4,5.2,"08:24:18",1
"20/01/19","08:40",0.0,1.6,94.0,1011.2,148.1,0.5,1.0,128.7,0.01,0.8,5.0,"08:30:24",1
"20/01/19","08:50",0.0,2.0,94.2,1011.6,168.3,0.5,0.9,209.2,0.03,1.2,5.2,"08:47:04",1
"20/01/19","09:00",0.0,2.8,94.0,1011.6,269.5,0.6,0.9,290.3,0.04,2.0,5.1,"08:54:56",1
"20/01/19","09:10",0.0,3.3,93.6,1011.9,204.0,0.6,1.3,166.2,0.07,2.4,5.2,"09:03:02",1
"20/01/19","09:20",0.0,3.7,93.4,1011.9,247.8,0.6,0.9,284.7,0.09,2.8,5.4,"09:15:22",1
"20/01/19","09:30",0.0,4.2,93.1,1012.6,261.4,0.7,1.2,245.5,0.11,3.2,5.3,"09:29:26",1
"20/01/19","09:40",0.0,4.4,92.4,1013.0,250.3,1.0,1.7,262.1,0.14,3.3,5.7,"09:33:36",1
"20/01/19","09:50",0.0,4.4,91.9,1013.0,245.2,1.5,2.4,235.9,0.16,3.2,5.6,"09:44:30",1
"20/01/19","10:00",0.0,5.2,90.9,1013.3,238.7,1.0,1.8,262.3,0.19,3.9,5.7,"09:53:12",1
"20/01/19","10:10",0.0,5.4,89.5,1013.8,239.5,1.2,2.2,241.9,0.21,3.9,5.8,"10:04:00",1
"20/01/19","10:20",0.0,5.8,87.1,1014.0,209.7,1.0,2.5,235.8,0.24,3.9,6.1,"10:11:28",1
"20/01/19","10:30",0.0,6.2,85.1,1014.2,176.2,1.1,3.1,134.5,0.27,3.9,6.2,"10:28:56",1
"20/01/19","10:40",0.0,6.3,82.9,1014.2,132.9,1.1,1.9,123.5,0.28,3.7,6.3,"10:39:52",1
"20/01/19","10:50",0.0,6.4,80.7,1013.5,138.7,1.3,3.1,112.9,0.28,3.4,6.7,"10:46:08",1
"20/01/19","11:00",0.0,6.8,78.4,1013.5,193.6,1.3,2.1,212.5,0.31,3.3,6.8,"10:57:20",1
"20/01/19","11:10",0.0,7.3,76.1,1013.3,141.2,1.2,3.1,82.4,0.33,3.4,7.0,"11:02:24",1
"20/01/19","11:20",0.0,7.9,74.0,1013.5,196.0,1.1,2.4,158.5,0.34,3.6,7.4,"11:18:32",1
"20/01/19","11:30",0.0,8.3,72.3,1013.3,147.8,1.2,2.8,130.1,0.38,3.7,7.4,"11:28:24",1
"20/01/19","11:40",0.0,8.6,70.8,1012.8,140.0,1.2,2.6,127.1,0.38,3.6,7.7,"11:34:24",1
"20/01/19","11:50",0.0,8.6,69.5,1012.3,124.4,1.3,2.7,116.5,0.39,3.4,7.8,"11:46:48",1
"20/01/19","12:00",0.0,9.3,68.2,1012.1,200.2,1.0,2.0,203.2,0.37,3.8,8.3,"11:59:20",1
"20/01/19","12:10",0.0,9.4,67.5,1011.6,171.3,1.2,2.9,204.2,0.33,3.7,8.2,"12:04:00",1
"20/01/19","12:20",0.0,9.7,66.3,1011.6,184.6,1.2,3.2,152.9,0.33,3.8,8.5,"12:15:52",1
"20/01/19","12:30",0.0,9.5,65.2,1011.9,237.6,1.5,3.5,238.6,0.22,3.3,8.9,"12:26:08",1
"20/01/19","12:40",0.0,9.4,63.8,1011.4,241.2,1.2,2.9,237.7,0.21,2.9,8.8,"12:38:56",1
"20/01/19","12:50",0.0,9.4,63.1,1011.2,202.1,1.1,2.2,148.9,0.21,2.8,9.0,"12:47:04",1
"20/01/19","13:00",0.0,9.5,62.9,1010.7,208.7,1.2,2.7,212.9,0.21,2.8,9.0,"12:52:16",1
"20/01/19","13:10",0.0,9.7,62.1,1011.2,226.2,0.8,2.1,136.4,0.20,2.8,9.2,"13:01:04",1
"20/01/19","13:20",0.0,9.9,61.9,1011.2,234.0,1.0,2.5,234.2,0.21,3.0,9.1,"13:10:02",1
"20/01/19","13:30",0.0,9.8,61.9,1010.7,221.0,1.2,2.9,210.9,0.19,2.9,9.1,"13:23:04",1
"20/01/19","13:40",0.0,10.1,61.1,1010.4,207.0,1.3,3.4,237.0,0.27,3.0,9.3,"13:39:22",1
"20/01/19","13:50",0.0,10.3,60.0,1010.2,289.9,1.2,2.8,230.4,0.22,2.9,9.3,"13:48:16",1
"20/01/19","14:00",0.0,10.4,59.4,1010.2,145.7,1.1,2.9,103.4,0.23,2.9,9.6,"13:57:12",1
"20/01/19","14:10",0.0,10.2,59.3,1010.2,108.3,1.5,3.3,104.5,0.20,2.7,9.3,"14:02:40",1
"20/01/19","14:20",0.0,10.1,59.5,1010.0,140.3,1.3,4.2,121.9,0.17,2.6,9.5,"14:14:48",1
"20/01/19","14:30",0.0,10.2,58.9,1010.0,181.6,1.2,2.6,163.8,0.16,2.6,9.6,"14:24:24",1
"20/01/19","14:40",0.0,10.2,57.8,1009.7,194.0,1.6,2.7,166.3,0.16,2.3,9.7,"14:32:48",1
"20/01/19","14:50",0.0,10.1,57.1,1009.7,183.1,1.7,3.6,116.7,0.12,2.0,9.5,"14:47:04",1
"20/01/19","15:00",0.0,10.3,57.6,1010.0,204.4,1.8,4.1,213.4,0.14,2.3,9.7,"14:58:08",1
"20/01/19","15:10",0.0,10.1,57.8,1010.2,226.4,2.0,4.2,242.9,0.11,2.2,9.4,"15:03:52",1
"20/01/19","15:20",0.0,10.0,58.0,1009.5,218.5,1.7,3.6,233.2,0.08,2.2,9.5,"15:12:40",1
"20/01/19","15:30",0.0,10.1,58.8,1009.5,250.2,1.2,2.4,240.0,0.07,2.5,9.4,"15:21:36",1
"20/01/19","15:40",0.0,10.1,58.4,1009.3,247.7,1.5,2.9,235.7,0.07,2.4,9.7,"15:39:12",1
"20/01/19","15:50",0.0,9.9,58.0,1009.5,236.0,1.7,3.5,241.2,0.06,2.1,9.5,"15:42:56",1
"20/01/19","16:00",0.0,10.0,58.3,1009.7,245.7,0.8,1.9,253.8,0.05,2.2,9.3,"15:50:56",1
"20/01/19","16:10",0.0,9.8,58.2,1009.5,244.5,0.8,1.7,234.5,0.03,2.0,9.3,"16:08:32",1
"20/01/19","16:20",0.0,9.8,58.2,1009.7,256.4,1.2,2.2,245.3,0.03,2.0,9.2,"16:11:44",1
"20/01/19","16:30",0.0,9.7,58.3,1009.7,245.2,1.0,1.7,235.6,0.03,2.0,9.4,"16:24:24",1
"20/01/19","16:40",0.0,9.8,58.9,1009.7,262.1,0.5,1.2,266.3,0.03,2.2,9.2,"16:31:44",1
"20/01/19","16:50",0.0,9.7,59.1,1009.5,252.8,1.0,1.8,246.9,0.02,2.1,9.4,"16:48:32",1
"20/01/19","17:00",0.0,9.6,59.8,1009.7,243.3,0.6,1.2,256.9,0.02,2.2,9.2,"16:50:16",1
"20/01/19","17:10",0.0,9.5,60.3,1010.0,269.1,0.7,1.2,241.3,0.01,2.2,9.2,"17:00:32",1
"20/01/19","17:20",0.0,9.5,63.1,1009.5,322.2,1.6,2.4,328.3,0.00,2.9,9.3,"17:17:12",1
"20/01/19","17:30",0.0,8.9,65.9,1009.5,290.6,1.1,2.2,321.5,0.00,2.9,8.8,"17:20:08",1
"20/01/19","17:40",0.0,8.6,67.5,1009.5,306.1,1.8,2.4,317.2,0.00,3.0,9.1,"17:32:40",1
"20/01/19","17:50",0.0,8.3,69.0,1009.5,329.9,1.5,1.9,333.1,0.00,3.0,8.8,"17:49:28",1
"20/01/19","18:00",0.0,7.9,70.5,1009.5,325.7,1.7,2.9,326.2,0.00,2.9,8.9,"17:52:56",1
"20/01/19","18:10",0.0,7.4,71.9,1009.7,318.8,1.8,2.8,321.5,0.00,2.7,8.9,"18:06:24",1
"20/01/19","18:20",0.0,7.2,72.8,1009.3,314.8,1.5,2.4,317.3,0.00,2.7,8.8,"18:13:44",1
"20/01/19","18:30",0.0,7.0,73.6,1009.5,304.9,1.6,2.1,330.9,0.00,2.7,8.7,"18:27:52",1
"20/01/19","18:40",0.0,6.8,74.1,1009.7,301.3,1.7,2.2,323.3,0.00,2.6,8.7,"18:30:32",1
"20/01/19","18:50",0.0,6.8,74.6,1009.5,310.6,1.8,2.5,325.9,0.00,2.6,8.3,"18:47:12",1
"20/01/19","19:00",0.0,6.7,75.0,1010.0,309.4,1.7,2.1,338.1,0.00,2.6,8.7,"18:56:40",1
"20/01/19","19:10",0.0,6.6,75.5,1010.2,295.7,1.2,2.0,325.1,0.00,2.6,8.5,"19:00:08",1
"20/01/19","19:20",0.0,6.4,76.0,1010.2,300.0,1.8,2.6,331.7,0.00,2.5,8.5,"19:12:24",1
"20/01/19","19:30",0.0,6.4,76.4,1010.4,313.9,1.6,2.4,307.1,0.00,2.6,8.4,"19:20:08",1
"20/01/19","19:40",0.0,6.4,76.7,1010.4,296.2,1.3,2.5,320.4,0.00,2.7,8.2,"19:38:48",1
"20/01/19","19:50",0.0,6.3,77.5,1010.4,323.8,1.6,3.2,318.3,0.00,2.7,8.3,"19:43:36",1
"20/01/19","20:00",0.0,6.0,78.2,1010.4,313.0,1.6,2.8,322.5,0.00,2.5,8.2,"19:55:44",1
"20/01/19","20:10",0.0,6.0,78.9,1010.4,271.8,1.3,1.9,265.6,0.00,2.7,8.2,"20:01:12",1
"20/01/19","20:20",0.0,6.1,79.2,1010.2,302.4,1.5,2.5,312.6,0.00,2.8,8.2,"20:15:20",1
"20/01/19","20:30",0.0,6.2,79.5,1010.4,319.9,2.0,2.6,320.0,0.00,3.0,8.1,"20:23:52",1
"20/01/19","20:40",0.0,6.0,79.7,1010.7,283.3,1.1,1.8,320.7,0.00,2.8,8.3,"20:39:52",1
"20/01/19","20:50",0.0,5.9,79.9,1010.7,298.1,1.2,2.4,319.8,0.00,2.7,8.2,"20:41:36",1
"20/01/19","21:00",0.0,6.0,80.2,1010.4,319.7,1.2,2.7,325.5,0.00,2.9,8.0,"20:54:50",1
"20/01/19","21:10",0.0,5.6,80.5,1010.2,324.1,1.8,3.2,318.2,0.00,2.6,8.1,"21:06:56",1
"20/01/19","21:20",0.0,5.3,80.9,1010.4,306.6,1.3,2.7,330.8,0.00,2.3,8.0,"21:11:44",1
"20/01/19","21:30",0.0,5.2,81.3,1010.2,328.6,1.6,2.8,328.2,0.00,2.3,8.1,"21:27:16",1
"20/01/19","21:40",0.0,5.0,81.7,1010.2,304.6,1.2,2.5,323.7,0.00,2.2,7.7,"21:33:14",1
"20/01/19","21:50",0.0,4.9,82.0,1010.4,304.7,1.7,3.1,322.4,0.00,2.1,7.7,"21:41:42",1
"20/01/19","22:00",0.0,4.8,82.5,1010.7,299.6,1.6,2.5,321.7,0.00,2.1,7.7,"21:56:16",1
"20/01/19","22:10",0.0,4.8,83.0,1010.4,305.9,1.2,1.9,325.8,0.00,2.2,7.9,"22:08:26",1
"20/01/19","22:20",0.0,4.9,83.4,1010.4,319.2,1.8,3.5,318.2,0.00,2.4,7.5,"22:18:50",1
"20/01/19","22:30",0.0,4.7,84.0,1010.4,321.1,1.6,2.5,331.0,0.00,2.3,7.6,"22:21:52",1
"20/01/19","22:40",0.0,4.4,84.7,1010.2,293.2,1.5,2.8,319.6,0.00,2.1,7.5,"22:35:36",1
"20/01/19","22:50",0.0,4.3,85.4,1010.4,303.2,1.5,2.1,317.7,0.00,2.1,7.7,"22:47:46",1
"20/01/19","23:00",0.0,4.3,86.0,1010.7,307.3,1.6,3.4,321.8,0.00,2.2,7.4,"22:54:24",1
"20/01/19","23:10",0.0,4.1,86.4,1010.4,303.2,1.5,2.1,317.0,0.00,2.1,7.5,"23:00:32",1
"20/01/19","23:20",0.0,4.0,86.9,1010.2,315.7,1.6,2.0,324.6,0.00,2.1,7.2,"23:16:42",1
"20/01/19","23:30",0.0,3.7,87.2,1010.0,293.5,1.5,2.5,325.6,0.00,1.8,7.3,"23:22:56",1
"20/01/19","23:40",0.0,3.8,87.8,1010.0,282.5,1.6,2.2,304.3,0.00,2.0,7.2,"23:36:24",1
"20/01/19","23:50",0.0,3.8,88.0,1010.4,307.7,1.7,2.2,316.1,0.00,2.0,7.2,"23:48:24",1
"20/01/19","24:00",0.0,3.5,88.4,1010.4,294.5,1.5,2.4,316.8,0.00,1.8,7.3,"23:59:12",1
